Home > Weather > Netherlands > Maastricht > Past weeks

Flag for Netherlands Weather past 2 weeks in Maastricht, Netherlands

52 °F

Mostly cloudy.

Feels Like: 47 °F
Forecast: 45 / 51 °F
Wind: 13 mph from Southwest

Location: Maastricht Airport Zuid Limburg

Current Time: Dec 2, 2015 at 2:42:44 AM

Latest Report: Dec 2, 2015 at 1:55 AM

Visibility: N/A

Pressure: 30.33 "Hg

Humidity: 82%

Dew point: 46 °F

Location of MaastrichtLocation

Historic Weather in Maastricht — Graph


Maastricht temperature yesterday

Maximum temperature yesterday: 54 °F (at 1:25 PM)
Minimum temperature yesterday: 48 °F (at 5:25 AM)
Average temperature yesterday: 51 °F

Past Weeks' High & Low Weather Summary

High59 °F (Nov 17, 10:25 AM)100% (Nov 17, 4:55 AM)30.33 "Hg (Nov 17, 4:55 AM)
Low30 °F (Nov 23, 6:25 AM)63% (Nov 18, 1:55 PM)29.39 "Hg (Nov 21, 12:25 PM)
Average44 °F87%29.90 "Hg
* Reported Nov 17 1:25 AM — Dec 2 1:25 AM, Maastricht, Weather by CustomWeather, © 2015

Note: Actual official high and low records may vary slightly from our data, if they occured in-between our weather recording intervals... More about our weather records


Maastricht weather history for previous 24 hours

Time TempWeatherWind HumidityBarometerVisibility
1:25 AM
Wed, Dec 2
52 °FMostly cloudy.14 mph82%30.33 "HgN/A
12:55 AM52 °FOvercast.13 mph82%30.33 "HgN/A
12:25 AM52 °FOvercast.12 mph82%30.33 "HgN/A
11:55 PM
Tue, Dec 1
52 °FOvercast.12 mph88%30.33 "HgN/A
11:25 PM52 °FOvercast.12 mph82%30.30 "HgN/A
10:55 PM52 °FMostly cloudy.13 mph88%30.33 "HgN/A
10:25 PM52 °FOvercast.15 mph88%30.33 "HgN/A
9:55 PM54 °FOvercast.13 mph82%30.30 "HgN/A
9:25 PM52 °FMostly cloudy.14 mph94%30.30 "HgN/A
8:55 PM52 °FOvercast.13 mph94%30.30 "HgN/A
8:25 PM52 °FPartly cloudy.13 mph94%30.30 "HgN/A
7:55 PM54 °FMostly cloudy.13 mph88%30.30 "HgN/A
7:25 PM54 °FOvercast.12 mph88%30.30 "HgN/A
6:55 PM54 °FPartly cloudy.14 mph94%30.30 "HgN/A
6:25 PM54 °FPassing clouds.13 mph94%30.27 "HgN/A
5:55 PM54 °FOvercast.13 mph94%30.27 "Hg4 mi
5:25 PM54 °FPassing clouds.12 mph94%30.27 "HgN/A
4:55 PM54 °FOvercast.10 mph94%30.27 "Hg4 mi
4:25 PM54 °FMostly cloudy.10 mph94%30.27 "Hg6 mi
3:55 PM54 °FMostly cloudy.10 mph94%30.24 "HgN/A
3:25 PM54 °FMostly cloudy.12 mph94%30.24 "Hg4 mi
2:55 PM54 °FCloudy.10 mph94%30.24 "Hg4 mi
2:25 PM54 °FDrizzle. Partly sunny.10 mph94%30.24 "Hg4 mi
1:55 PM54 °FFog.10 mph94%30.24 "Hg3 mi
1:25 PM54 °FCloudy.10 mph94%30.24 "Hg4 mi
12:55 PM52 °FMostly cloudy.10 mph100%30.21 "Hg4 mi
12:25 PM50 °FDrizzle. Cloudy.8 mph100%30.21 "Hg1 mi
11:55 AM50 °FDrizzle. Mostly cloudy.6 mph94%30.21 "Hg1 mi
11:25 AM50 °FDrizzle. Cloudy.6 mph94%30.21 "Hg1 mi
10:55 AM48 °FDrizzle. Broken clouds.5 mph100%30.21 "Hg1 mi
10:25 AM48 °FDrizzle. Mostly cloudy.5 mph100%30.21 "Hg1 mi
9:55 AM48 °FDrizzle. Broken clouds.3 mph100%30.21 "Hg1 mi
8:55 AM48 °FDrizzle. Broken clouds.2 mph100%30.18 "Hg1 mi
7:55 AM48 °FPartly cloudy.5 mph94%30.18 "Hg2 mi
7:25 AM48 °FPartly cloudy.5 mph100%30.18 "Hg2 mi
6:55 AM48 °FLight rain. Mostly cloudy.6 mph100%30.15 "Hg2 mi
6:25 AM48 °FRain. Mostly cloudy.6 mph100%30.15 "Hg2 mi
5:55 AM48 °FDrizzle. Mostly cloudy.6 mph100%30.12 "Hg2 mi
5:25 AM48 °FDrizzle. Mostly cloudy.5 mph100%30.12 "Hg2 mi
4:55 AM50 °FLight rain. Mostly cloudy.6 mph100%30.12 "Hg2 mi
4:25 AM50 °FRain. Overcast.8 mph100%30.09 "Hg2 mi
3:55 AM50 °FLight rain. Mostly cloudy.7 mph100%30.09 "Hg2 mi
3:25 AM52 °FPartly cloudy.14 mph94%30.07 "Hg2 mi
2:55 AM52 °FPassing clouds.15 mph94%30.07 "Hg2 mi
2:25 AM52 °FPassing clouds.17 mph94%30.07 "Hg2 mi
Weather by CustomWeather, © 2015

See weather overviewHow to use our weather pages